User: anonymous   Login
Location: Ammerl�gen
(47.2167°N, 9.6000°E)
Time: 19:06:23
(UTC+00:00)
Language:

Max Valier Satellite - Orbit

View from above orbital plane
View from above orbital plane
View from above satellite
View from above satellite

Ground track
Ground track

The orbit data is extracted from the following two-line orbital elements,

1 42778U 17036P   21341.12358615  .00002307  00000-0  96838-4 0  9997
2 42778  97.2333  23.9361 0009904 289.4133  70.6034 15.24402545247581
Epoch (UTC): 07 December 2021 02:57:57
Eccentricity: 0.0009904
inclination: 97.2333°
perigee height: 486 km
apogee height: 499 km
right ascension of ascending node: 23.9361°
argument of perigee: 289.4133°
revolutions per day: 15.24402545
mean anomaly at epoch: 70.6034°
orbit number at epoch: 24758

The dashed part of the orbit path shows where the satellite is in the earth's shadow,  

DLR